Regional Weather Roundup
Issued by NWS

Home | Current Version | Previous Version | Text Only | Print | Product List | Glossary On
Versions: 1 2 3 4 5 6 7 8 9 10 11 12 13 14 15 16 17 18 19 20 21 22 23 24 25 26 27 28 29 30 31 32 33 34 35 36 37 38 39 40 41 42 43 44 45 46 47 48 49 50
682
ASUS43 KLSX 241007
RWRMO

WEATHER SUMMARY FOR MISSOURI
NATIONAL WEATHER SERVICE SPRINGFIELD MO
400 AM CST TUE JAN 24 2017

NOTE: "FAIR" INDICATES FEW OR NO CLOUDS BELOW 12,000 FEET WITH NO
       SIGNIFICANT WEATHER AND/OR OBSTRUCTIONS TO VISIBILITY.
       CURRENT SKY AND/OR WEATHER CONDITIONS ARE NOT AVAILABLE FOR
       CHILLICOTHE AND FARMINGTON.

MOZ001>031-035>038-043-044-053-054-241100-
...NORTHERN AND WESTERN MISSOURI...

CITY           SKY/WX    TMP DP  RH WIND       PRES   REMARKS
KANSAS CTY INT CLEAR     31  27  85 E13       29.77F WCI  21
KANSAS C DTWN  CLEAR     32  29  88 E13       29.78F WCI  22
LEE`S SUMMIT   CLEAR     30  28  92 E13       29.78F WCI  20
ST JOSEPH      CLEAR     30  29  96 E10       29.80F WCI  21
CHILLICOTHE      N/A     33  30  88 E6        29.87S WCI  28
KIRKSVILLE     CLOUDY    31  29  92 E5        29.88F WCI  26

$$
MOZ066>068-077>081-088>096-101>105-241100-
...SOUTHWEST MISSOURI...

CITY           SKY/WX    TMP DP  RH WIND       PRES   REMARKS
SPRINGFIELD    CLEAR     37  32  82 SE12      29.77F WCI  29
JOPLIN         CLEAR     40  34  79 SE9       29.72F
BRANSON        CLEAR     36  32  87 SE12      29.80F WCI  27

$$
MOZ032>034-039>042-045>050-055>058-069>072-241100-
...CENTRAL MISSOURI...

CITY           SKY/WX    TMP DP  RH WIND       PRES   REMARKS
COLUMBIA       CLOUDY    33  31  92 SE6       29.87F WCI  28
JEFFERSON CITY CLEAR     28  27  96 CALM      29.88F FOG
ROLLA          PTCLDY    29  28  96 E8        29.84F FOG     WCI  21
SEDALIA        CLEAR     30  28  92 E6        29.84F FOG     WCI  24
WHITEMAN AFB   CLEAR     30  30 100 E9        29.81F WCI  22
WARRENSBURG    PTCLDY    30  28  93 E7        29.82F WCI  23
OSAGE BEACH    CLEAR     29  28  96 SE5       29.86F WCI  24

$$
MOZ051-052-059>065-241100-
...EAST CENTRAL MISSOURI...

CITY           SKY/WX    TMP DP  RH WIND       PRES   REMARKS
ST LOUIS INTL  CLOUDY    39  31  72 CALM      29.90R
SPIRIT OF STL  CLOUDY    38  34  85 CALM      29.89R
ST CHARLES     CLOUDY    38  32  79 NW3       29.90R

$$
MOZ072>076-082>087-097>100-106>115-241100-
...SOUTH CENTRAL AND SOUTHEAST MISSOURI...

CITY           SKY/WX    TMP DP  RH WIND       PRES   REMARKS
CAPE GIRARDEAU CLEAR     30  28  92 W3        29.91R
FARMINGTON     CLEAR     25  24  96 CALM      29.89R
POPLAR BLUFF   CLEAR     30  29  96 CALM      29.91R
WEST PLAINS    CLOUDY    28  26  92 CALM      29.86S

$$



USA.gov is the U.S. government's official web portal to all federal, state and local government web resources and services.